UAE98N OMDB-VECC

Flight info

Callsign UAE98N
Flight time 3h 48m
Altitude 35000
Route IVURO M428 MUNGA A777 VAXIM L301 RASKI L639 BPL A791 JJS JJS2A
Aircraft B77W/H-SDE1E2E3FGHIJ2J3J4J5M1RWXY/LB1D1

Departure

Time 2026-05-06 09:38
Airport Dubai International Airport (OMDB)

Arrival

Time 2026-05-06 13:27
Airport Netaji Subhash Chandra Bose International Airport (VECC)
Time Latitude Longitude Altitude Speed Heading
2026-05-06 09:06 25.24925 55.35832 31 ft 0 kts 31°
2026-05-06 09:25 25.24908 55.35821 27 ft 4 kts 31°
2026-05-06 09:25 25.24885 55.35806 32 ft 3 kts 31°
2026-05-06 09:25 25.24866 55.35795 31 ft 4 kts
2026-05-06 09:26 25.24845 55.35803 31 ft 4 kts 309°
2026-05-06 09:26 25.24830 55.35827 31 ft 4 kts 302°
2026-05-06 09:26 25.24818 55.35849 31 ft 1 kts 302°
2026-05-06 09:26 25.24817 55.35850 31 ft 0 kts 302°
2026-05-06 09:28 25.24821 55.35843 31 ft 7 kts 302°
2026-05-06 09:28 25.24872 55.35753 30 ft 16 kts 304°
2026-05-06 09:29 25.24937 55.35656 32 ft 16 kts 306°
2026-05-06 09:29 25.24996 55.35556 29 ft 16 kts 301°
2026-05-06 09:29 25.25054 55.35453 32 ft 17 kts 302°
2026-05-06 09:29 25.25134 55.35311 29 ft 28 kts 302°
2026-05-06 09:30 25.25249 55.35134 31 ft 24 kts 302°
2026-05-06 09:30 25.25330 55.34991 31 ft 18 kts 302°
2026-05-06 09:30 25.25415 55.34898 30 ft 17 kts 345°
2026-05-06 09:30 25.25522 55.34935 29 ft 17 kts 32°
2026-05-06 09:31 25.25610 55.34993 30 ft 12 kts 31°
2026-05-06 09:31 25.25677 55.35048 31 ft 12 kts 61°
2026-05-06 09:31 25.25663 55.35136 30 ft 11 kts 81°
2026-05-06 09:31 25.25725 55.35186 29 ft 11 kts 31°
2026-05-06 09:32 25.25803 55.35237 30 ft 15 kts 31°
2026-05-06 09:32 25.25895 55.35298 30 ft 15 kts 31°
2026-05-06 09:32 25.25983 55.35365 26 ft 15 kts 46°
2026-05-06 09:32 25.26009 55.35477 26 ft 16 kts 96°
2026-05-06 09:33 25.25951 55.35623 27 ft 24 kts 122°
2026-05-06 09:33 25.25861 55.35783 27 ft 24 kts 122°
2026-05-06 09:33 25.25772 55.35942 27 ft 24 kts 121°
2026-05-06 09:33 25.25683 55.36102 27 ft 24 kts 122°
2026-05-06 09:34 25.25623 55.36208 28 ft 24 kts 121°
2026-05-06 09:34 25.25533 55.36366 27 ft 24 kts 122°
2026-05-06 09:34 25.25443 55.36526 27 ft 24 kts 122°
2026-05-06 09:34 25.25325 55.36738 26 ft 24 kts 122°
2026-05-06 09:35 25.25235 55.36897 27 ft 24 kts 122°
2026-05-06 09:35 25.25146 55.37056 28 ft 24 kts 122°
2026-05-06 09:35 25.25056 55.37215 28 ft 24 kts 122°
2026-05-06 09:35 25.24967 55.37375 28 ft 24 kts 121°
2026-05-06 09:36 25.24906 55.37482 28 ft 24 kts 122°
2026-05-06 09:36 25.24816 55.37641 28 ft 24 kts 122°
2026-05-06 09:36 25.24727 55.37800 27 ft 23 kts 122°
2026-05-06 09:36 25.24675 55.37894 27 ft 11 kts 122°
2026-05-06 09:37 25.24678 55.37965 28 ft 11 kts 39°
2026-05-06 09:37 25.24742 55.38007 29 ft 11 kts 31°
2026-05-06 09:37 25.24813 55.38011 30 ft 11 kts 324°
2026-05-06 09:37 25.24881 55.37891 30 ft 33 kts 301°
2026-05-06 09:38 25.25111 55.37482 32 ft 100 kts 302°
2026-05-06 09:38 25.25594 55.36608 31 ft 163 kts 301°
2026-05-06 09:38 25.26235 55.35434 393 ft 183 kts 303°
2026-05-06 09:38 25.26892 55.34182 919 ft 194 kts 301°
2026-05-06 09:39 25.27622 55.32887 1406 ft 208 kts 300°
2026-05-06 09:39 25.28412 55.31446 1776 ft 229 kts 300°
2026-05-06 09:39 25.29425 55.30028 2267 ft 245 kts 323°
2026-05-06 09:39 25.31032 55.29404 2928 ft 249 kts 360°
2026-05-06 09:40 25.32739 55.29493 3686 ft 248 kts
2026-05-06 09:40 25.34473 55.29560 4441 ft 251 kts
2026-05-06 09:40 25.38014 55.29665 5959 ft 256 kts
2026-05-06 09:41 25.39746 55.30058 6548 ft 256 kts 32°
2026-05-06 09:41 25.41093 55.31371 6878 ft 269 kts 53°
2026-05-06 09:41 25.42283 55.33050 7361 ft 282 kts 54°
2026-05-06 09:41 25.43522 55.34762 8139 ft 286 kts 53°
2026-05-06 09:42 25.44772 55.36484 8997 ft 288 kts 53°
2026-05-06 09:42 25.46033 55.38215 9839 ft 290 kts 52°
2026-05-06 09:42 25.47311 55.39963 10547 ft 297 kts 52°
2026-05-06 09:42 25.48662 55.41821 10801 ft 324 kts 53°
2026-05-06 09:43 25.50106 55.43879 10984 ft 352 kts 53°
2026-05-06 09:43 25.51583 55.46107 11402 ft 363 kts 60°
2026-05-06 09:43 25.52422 55.48769 11958 ft 374 kts 83°
2026-05-06 09:43 25.52282 55.51654 12836 ft 378 kts 103°
2026-05-06 09:44 25.51306 55.54355 13796 ft 378 kts 120°
2026-05-06 09:44 25.49879 55.56839 14424 ft 388 kts 123°
2026-05-06 09:44 25.48383 55.59357 15179 ft 395 kts 123°
2026-05-06 09:44 25.46871 55.61926 15935 ft 401 kts 122°
2026-05-06 09:45 25.45360 55.64544 16713 ft 407 kts 122°
2026-05-06 09:45 25.43837 55.67210 17479 ft 413 kts 122°
2026-05-06 09:45 25.42408 55.69992 18184 ft 419 kts 112°
2026-05-06 09:45 25.41651 55.73118 18767 ft 425 kts 100°
2026-05-06 09:46 25.41106 55.76361 19390 ft 432 kts 101°
2026-05-06 09:46 25.40472 55.79629 20092 ft 437 kts 103°
2026-05-06 09:46 25.39772 55.82917 20751 ft 443 kts 103°
2026-05-06 09:46 25.39043 55.86254 21322 ft 450 kts 104°
2026-05-06 09:47 25.38313 55.89621 22140 ft 451 kts 103°
2026-05-06 09:47 25.37594 55.92971 22855 ft 455 kts 103°
2026-05-06 09:47 25.36852 55.96446 23439 ft 462 kts 103°
2026-05-06 09:47 25.36119 55.99881 23900 ft 468 kts 103°
2026-05-06 09:48 25.35368 56.03400 24386 ft 473 kts 103°
2026-05-06 09:48 25.34608 56.06959 24895 ft 478 kts 104°
2026-05-06 09:48 25.33838 56.10556 25389 ft 483 kts 104°
2026-05-06 09:48 25.33059 56.14189 25873 ft 489 kts 104°
2026-05-06 09:49 25.32184 56.17835 26330 ft 493 kts 108°
2026-05-06 09:49 25.31041 56.21426 26814 ft 497 kts 112°
2026-05-06 09:49 25.29777 56.25008 27315 ft 502 kts 112°
2026-05-06 09:49 25.28506 56.28612 27778 ft 506 kts 112°
2026-05-06 09:50 25.27269 56.32268 28221 ft 511 kts 111°
2026-05-06 09:50 25.26056 56.35972 28662 ft 515 kts 111°
2026-05-06 09:50 25.24837 56.39715 29095 ft 519 kts 111°
2026-05-06 09:50 25.23600 56.43477 29532 ft 523 kts 111°
2026-05-06 09:51 25.22350 56.47265 29939 ft 527 kts 111°
2026-05-06 09:51 25.21090 56.51075 30282 ft 530 kts 111°
2026-05-06 09:51 25.19820 56.54912 30649 ft 532 kts 111°
2026-05-06 09:51 25.18551 56.58745 31110 ft 532 kts 112°
2026-05-06 09:52 25.17212 56.62548 31584 ft 531 kts 114°
2026-05-06 09:52 25.15799 56.66300 32084 ft 529 kts 115°
2026-05-06 09:52 25.14352 56.70037 32547 ft 529 kts 115°
2026-05-06 09:52 25.12921 56.73715 33008 ft 529 kts 115°
2026-05-06 09:53 25.11458 56.77496 33476 ft 528 kts 115°
2026-05-06 09:53 25.10027 56.81227 33921 ft 528 kts 115°
2026-05-06 09:53 25.08629 56.84901 34377 ft 525 kts 114°
2026-05-06 09:53 25.07223 56.88611 34778 ft 525 kts 114°
2026-05-06 09:54 25.04389 56.96089 34828 ft 529 kts 114°
2026-05-06 09:54 25.01567 57.03526 34808 ft 523 kts 114°
2026-05-06 09:55 24.98756 57.10911 34817 ft 522 kts 114°
2026-05-06 09:55 24.95923 57.18335 34818 ft 522 kts 115°
2026-05-06 09:56 24.93122 57.25663 34830 ft 523 kts 114°
2026-05-06 09:56 24.90294 57.33049 34807 ft 523 kts 114°
2026-05-06 09:57 24.87464 57.40430 34808 ft 524 kts 114°
2026-05-06 09:57 24.84626 57.47818 34817 ft 524 kts 114°
2026-05-06 09:58 24.81782 57.55209 34822 ft 524 kts 114°
2026-05-06 09:58 24.78934 57.62599 34809 ft 524 kts 114°
2026-05-06 09:59 24.76083 57.69984 34814 ft 524 kts 114°
2026-05-06 09:59 24.73236 57.77364 34814 ft 524 kts 114°
2026-05-06 10:00 24.70775 57.84914 34819 ft 524 kts 110°
2026-05-06 10:00 24.68442 57.92512 34817 ft 524 kts 110°
2026-05-06 10:01 24.66092 58.00108 34810 ft 525 kts 110°
2026-05-06 10:01 24.63718 58.07688 34823 ft 525 kts 110°
2026-05-06 10:02 24.61332 58.15267 34820 ft 525 kts 110°
2026-05-06 10:02 24.58944 58.22841 34812 ft 525 kts 110°
2026-05-06 10:03 24.56553 58.30415 34820 ft 525 kts 110°
2026-05-06 10:03 24.54158 58.37987 34820 ft 525 kts 110°
2026-05-06 10:04 24.51772 58.45516 34815 ft 525 kts 110°
2026-05-06 10:04 24.49370 58.53085 34813 ft 525 kts 110°
2026-05-06 10:05 24.46962 58.60656 34813 ft 525 kts 110°
2026-05-06 10:05 24.44550 58.68225 34813 ft 525 kts 110°
2026-05-06 10:06 24.42112 58.75774 34815 ft 524 kts 112°
2026-05-06 10:06 24.39048 58.83017 34823 ft 523 kts 118°
2026-05-06 10:07 24.35806 58.90148 34814 ft 523 kts 118°
2026-05-06 10:07 24.32585 58.97302 34813 ft 523 kts 117°
2026-05-06 10:08 24.29391 59.04464 34807 ft 523 kts 117°
2026-05-06 10:08 24.26202 59.11623 34814 ft 523 kts 117°
2026-05-06 10:09 24.23006 59.18781 34815 ft 523 kts 117°
2026-05-06 10:09 24.19806 59.25930 34816 ft 523 kts 117°
2026-05-06 10:10 24.16600 59.33082 34814 ft 523 kts 117°
2026-05-06 10:10 24.13389 59.40235 34814 ft 523 kts 117°
2026-05-06 10:11 24.10176 59.47386 34813 ft 523 kts 117°
2026-05-06 10:11 24.06957 59.54527 34812 ft 523 kts 117°
2026-05-06 10:12 24.03753 59.61608 34812 ft 523 kts 117°
2026-05-06 10:12 24.00525 59.68734 34814 ft 523 kts 117°
2026-05-06 10:13 23.97298 59.75852 34813 ft 523 kts 118°
2026-05-06 10:13 23.94067 59.82968 34815 ft 523 kts 118°
2026-05-06 10:14 23.90833 59.90081 34815 ft 522 kts 117°
2026-05-06 10:14 23.87595 59.97191 34814 ft 522 kts 117°
2026-05-06 10:15 23.84357 60.04291 34815 ft 522 kts 117°
2026-05-06 10:15 23.81114 60.11392 34812 ft 522 kts 117°
2026-05-06 10:16 23.77869 60.18485 34820 ft 522 kts 117°
2026-05-06 10:16 23.74619 60.25580 34817 ft 523 kts 117°
2026-05-06 10:17 23.71367 60.32668 34820 ft 522 kts 117°
2026-05-06 10:17 23.68136 60.39701 34817 ft 522 kts 117°
2026-05-06 10:18 23.64860 60.46820 34818 ft 522 kts 117°
2026-05-06 10:18 23.61623 60.53843 34825 ft 522 kts 117°
2026-05-06 10:19 23.58337 60.60961 34825 ft 522 kts 117°
2026-05-06 10:19 23.55092 60.67983 34817 ft 522 kts 117°
2026-05-06 10:20 23.51825 60.75041 34825 ft 521 kts 117°
2026-05-06 10:20 23.48559 60.82086 34827 ft 521 kts 117°
2026-05-06 10:21 23.45291 60.89126 34830 ft 521 kts 117°
2026-05-06 10:21 23.42022 60.96160 34832 ft 520 kts 117°
2026-05-06 10:22 23.39304 61.01997 34832 ft 520 kts 117°
2026-05-06 10:22 23.36030 61.09025 34833 ft 521 kts 118°
2026-05-06 10:23 23.32980 61.16160 34835 ft 520 kts 109°
2026-05-06 10:23 23.31158 61.23766 34841 ft 520 kts 98°
2026-05-06 10:24 23.30411 61.31577 34844 ft 519 kts 94°
2026-05-06 10:24 23.29788 61.39397 34844 ft 519 kts 94°
2026-05-06 10:25 23.29127 61.47226 34840 ft 520 kts 95°
2026-05-06 10:25 23.28429 61.55056 34842 ft 520 kts 95°
2026-05-06 10:26 23.27716 61.62887 34842 ft 520 kts 95°
2026-05-06 10:26 23.27001 61.70717 34841 ft 520 kts 95°
2026-05-06 10:27 23.26284 61.78549 34842 ft 521 kts 95°
2026-05-06 10:27 23.25564 61.86379 34842 ft 521 kts 95°
2026-05-06 10:28 23.24840 61.94217 34849 ft 520 kts 95°
2026-05-06 10:28 23.24112 62.02040 34842 ft 520 kts 95°
2026-05-06 10:29 23.23383 62.09846 34837 ft 519 kts 95°
2026-05-06 10:29 23.22651 62.17636 34843 ft 517 kts 95°
2026-05-06 10:30 23.21920 62.25367 34842 ft 517 kts 95°
2026-05-06 10:30 23.21183 62.33124 34844 ft 517 kts 95°
2026-05-06 10:31 23.20441 62.40900 34844 ft 517 kts 95°
2026-05-06 10:31 23.19694 62.48681 34841 ft 518 kts 95°
2026-05-06 10:32 23.18943 62.56469 34842 ft 518 kts 95°
2026-05-06 10:32 23.18187 62.64263 34846 ft 519 kts 95°
2026-05-06 10:33 23.17427 62.72060 34847 ft 519 kts 95°
2026-05-06 10:33 23.16662 62.79869 34840 ft 520 kts 95°
2026-05-06 10:34 23.15892 62.87682 34840 ft 520 kts 95°
2026-05-06 10:34 23.15119 62.95490 34837 ft 520 kts 95°
2026-05-06 10:35 23.14343 63.03289 34840 ft 519 kts 95°
2026-05-06 10:35 23.13565 63.11075 34836 ft 518 kts 95°
2026-05-06 10:36 23.12783 63.18851 34835 ft 517 kts 95°
2026-05-06 10:36 23.11998 63.26618 34838 ft 517 kts 95°
2026-05-06 10:37 23.11210 63.34383 34839 ft 517 kts 95°
2026-05-06 10:37 23.10418 63.42150 34838 ft 517 kts 95°
2026-05-06 10:38 23.09622 63.49912 34841 ft 517 kts 95°
2026-05-06 10:38 23.08823 63.57675 34839 ft 517 kts 95°
2026-05-06 10:39 23.08019 63.65443 34838 ft 518 kts 95°
2026-05-06 10:39 23.07211 63.73211 34836 ft 518 kts 95°
2026-05-06 10:40 23.06405 63.80932 34837 ft 518 kts 95°
2026-05-06 10:40 23.05590 63.88714 34841 ft 519 kts 95°
2026-05-06 10:41 23.04801 63.96497 34837 ft 519 kts 95°
2026-05-06 10:41 23.04018 64.04292 34838 ft 519 kts 95°
2026-05-06 10:42 23.03229 64.12087 34839 ft 520 kts 95°
2026-05-06 10:42 23.02432 64.19882 34835 ft 520 kts 95°
2026-05-06 10:43 23.01631 64.27664 34839 ft 520 kts 95°
2026-05-06 10:44 23.00419 64.39379 34834 ft 520 kts 95°
2026-05-06 10:44 22.99614 64.47116 34836 ft 520 kts 95°
2026-05-06 10:45 22.98791 64.54989 34835 ft 521 kts 95°
2026-05-06 10:45 22.97972 64.62792 34829 ft 521 kts 95°
2026-05-06 10:46 22.97153 64.70549 34837 ft 520 kts 95°
2026-05-06 10:46 22.96321 64.78405 34829 ft 520 kts 95°
2026-05-06 10:47 22.95724 64.86155 34833 ft 519 kts 89°
2026-05-06 10:47 22.95785 64.93971 34839 ft 518 kts 87°
2026-05-06 10:48 22.95890 65.01791 34829 ft 518 kts 88°
2026-05-06 10:48 22.95957 65.09614 34832 ft 519 kts 88°
2026-05-06 10:49 22.95996 65.17441 34830 ft 519 kts 88°
2026-05-06 10:49 22.96026 65.25268 34829 ft 518 kts 88°
2026-05-06 10:50 22.96053 65.33082 34832 ft 518 kts 88°
2026-05-06 10:50 22.96078 65.40892 34823 ft 518 kts 88°
2026-05-06 10:51 22.96101 65.48707 34830 ft 518 kts 88°
2026-05-06 10:51 22.96119 65.56531 34830 ft 518 kts 88°
2026-05-06 10:52 22.96134 65.64301 34832 ft 518 kts 88°
2026-05-06 10:52 22.96144 65.72130 34826 ft 519 kts 88°
2026-05-06 10:53 22.96151 65.79958 34831 ft 519 kts 88°
2026-05-06 10:53 22.96154 65.87799 34830 ft 519 kts 88°
2026-05-06 10:54 22.96153 65.95635 34831 ft 520 kts 88°
2026-05-06 10:54 22.96148 66.03472 34830 ft 520 kts 88°
2026-05-06 10:55 22.96140 66.11321 34827 ft 520 kts 88°
2026-05-06 10:55 22.96127 66.19172 34829 ft 520 kts 88°
2026-05-06 10:56 22.96111 66.27021 34828 ft 520 kts 88°
2026-05-06 10:56 22.96091 66.34875 34834 ft 520 kts 88°
2026-05-06 10:57 22.96067 66.42722 34823 ft 520 kts 88°
2026-05-06 10:57 22.96039 66.50578 34828 ft 521 kts 88°
2026-05-06 10:58 22.96007 66.58431 34834 ft 521 kts 88°
2026-05-06 10:58 22.95971 66.66287 34828 ft 521 kts 88°
2026-05-06 10:59 22.95932 66.74152 34825 ft 521 kts 88°
2026-05-06 10:59 22.95889 66.81969 34826 ft 521 kts 88°
2026-05-06 11:00 22.95841 66.89886 34828 ft 522 kts 88°
2026-05-06 11:00 22.95793 66.97758 34829 ft 522 kts 88°
2026-05-06 11:01 22.95801 67.05595 34821 ft 522 kts 88°
2026-05-06 11:01 22.95832 67.13470 34824 ft 521 kts 88°
2026-05-06 11:02 22.95851 67.21328 34824 ft 521 kts 88°
2026-05-06 11:02 22.95860 67.29183 34818 ft 520 kts 88°
2026-05-06 11:03 22.95864 67.37028 34819 ft 520 kts 88°
2026-05-06 11:03 22.95864 67.44919 34816 ft 519 kts 88°
2026-05-06 11:04 22.95860 67.52706 34814 ft 519 kts 88°
2026-05-06 11:04 22.95853 67.60547 34817 ft 520 kts 88°
2026-05-06 11:05 22.95842 67.68398 34811 ft 520 kts 88°
2026-05-06 11:05 22.95827 67.76243 34816 ft 521 kts 88°
2026-05-06 11:06 22.95809 67.84106 34820 ft 521 kts 88°
2026-05-06 11:06 22.95796 67.91961 34817 ft 521 kts 88°
2026-05-06 11:07 22.95808 67.99825 34817 ft 521 kts 88°
2026-05-06 11:07 22.95818 68.07691 34816 ft 521 kts 88°
2026-05-06 11:08 22.95820 68.14230 34813 ft 521 kts 88°
2026-05-06 11:08 22.95817 68.22095 34817 ft 521 kts 88°
2026-05-06 11:09 22.95810 68.29963 34814 ft 522 kts 88°
2026-05-06 11:09 22.95792 68.37836 34815 ft 522 kts 89°
2026-05-06 11:10 22.95424 68.45710 34814 ft 523 kts 92°
2026-05-06 11:10 22.94924 68.53579 34818 ft 523 kts 92°
2026-05-06 11:11 22.94432 68.61471 34809 ft 524 kts 91°
2026-05-06 11:11 22.93962 68.69362 34809 ft 525 kts 91°
2026-05-06 11:12 22.93498 68.77259 34809 ft 525 kts 91°
2026-05-06 11:12 22.93028 68.85165 34808 ft 525 kts 91°
2026-05-06 11:13 22.92552 68.93073 34795 ft 525 kts 91°
2026-05-06 11:13 22.92071 69.00978 34804 ft 524 kts 92°
2026-05-06 11:14 22.91591 69.08812 34804 ft 523 kts 92°
2026-05-06 11:14 22.91105 69.16685 34800 ft 523 kts 92°
2026-05-06 11:15 22.90616 69.24550 34805 ft 523 kts 91°
2026-05-06 11:15 22.90123 69.32417 34808 ft 523 kts 91°
2026-05-06 11:16 22.89626 69.40290 34803 ft 524 kts 92°
2026-05-06 11:16 22.89123 69.48170 34805 ft 524 kts 92°
2026-05-06 11:17 22.88617 69.56064 34816 ft 525 kts 91°
2026-05-06 11:17 22.88106 69.63964 34809 ft 526 kts 92°
2026-05-06 11:18 22.87592 69.71891 34808 ft 527 kts 91°
2026-05-06 11:18 22.87124 69.79831 34802 ft 527 kts 91°
2026-05-06 11:19 22.86673 69.87763 34810 ft 528 kts 91°
2026-05-06 11:19 22.86213 69.95714 34802 ft 529 kts 91°
2026-05-06 11:20 22.85742 70.03665 34799 ft 529 kts 91°
2026-05-06 11:20 22.85265 70.11627 34803 ft 529 kts 91°
2026-05-06 11:21 22.84784 70.19590 34809 ft 529 kts 91°
2026-05-06 11:21 22.84300 70.27553 34805 ft 530 kts 91°
2026-05-06 11:22 22.83811 70.35525 34804 ft 530 kts 91°
2026-05-06 11:22 22.83319 70.43503 34809 ft 530 kts 91°
2026-05-06 11:23 22.82822 70.51480 34795 ft 530 kts 91°
2026-05-06 11:23 22.82322 70.59432 34804 ft 529 kts 91°
2026-05-06 11:24 22.81819 70.67380 34802 ft 528 kts 91°
2026-05-06 11:24 22.81317 70.75264 34792 ft 527 kts 91°
2026-05-06 11:25 22.81016 70.83193 34802 ft 525 kts 85°
2026-05-06 11:25 22.81842 70.91001 34805 ft 521 kts 77°
2026-05-06 11:26 22.83077 70.98744 34792 ft 522 kts 77°
2026-05-06 11:26 22.84289 71.06509 34779 ft 523 kts 77°
2026-05-06 11:27 22.85464 71.14309 34785 ft 524 kts 77°
2026-05-06 11:27 22.86623 71.22112 34771 ft 525 kts 77°
2026-05-06 11:28 22.87778 71.29919 34766 ft 525 kts 77°
2026-05-06 11:28 22.88933 71.37736 34766 ft 525 kts 77°
2026-05-06 11:29 22.90085 71.45552 34770 ft 525 kts 77°
2026-05-06 11:29 22.91230 71.53344 34766 ft 524 kts 77°
2026-05-06 11:30 22.92366 71.61100 34767 ft 525 kts 77°
2026-05-06 11:30 22.93514 71.68976 34766 ft 525 kts 77°
2026-05-06 11:31 22.94644 71.76747 34757 ft 525 kts 77°
2026-05-06 11:31 22.95778 71.84577 34754 ft 525 kts 77°
2026-05-06 11:32 22.96907 71.92403 34765 ft 526 kts 77°
2026-05-06 11:32 22.98036 72.00246 34756 ft 526 kts 77°
2026-05-06 11:33 22.99160 72.08088 34753 ft 527 kts 77°
2026-05-06 11:33 23.00282 72.15953 34746 ft 527 kts 77°
2026-05-06 11:34 23.01401 72.23817 34751 ft 527 kts 77°
2026-05-06 11:34 23.02517 72.31690 34740 ft 528 kts 77°
2026-05-06 11:35 23.03631 72.39576 34731 ft 528 kts 78°
2026-05-06 11:35 23.04738 72.47450 34721 ft 528 kts 78°
2026-05-06 11:36 23.05844 72.55335 34719 ft 528 kts 78°
2026-05-06 11:36 23.06919 72.63181 34732 ft 529 kts 79°
2026-05-06 11:37 23.07460 72.71216 34730 ft 531 kts 84°
2026-05-06 11:37 23.07852 72.79195 34718 ft 532 kts 84°
2026-05-06 11:38 23.08262 72.87218 34726 ft 532 kts 83°
2026-05-06 11:38 23.08697 72.95245 34755 ft 532 kts 83°
2026-05-06 11:39 23.09140 73.03282 34740 ft 533 kts 83°
2026-05-06 11:39 23.09577 73.11331 34748 ft 534 kts 83°
2026-05-06 11:40 23.10009 73.19386 34745 ft 534 kts 84°
2026-05-06 11:40 23.10436 73.27450 34743 ft 535 kts 84°
2026-05-06 11:41 23.10859 73.35514 34746 ft 535 kts 84°
2026-05-06 11:41 23.11279 73.43586 34741 ft 535 kts 84°
2026-05-06 11:42 23.11694 73.51663 34749 ft 535 kts 84°
2026-05-06 11:42 23.12106 73.59743 34748 ft 536 kts 84°
2026-05-06 11:43 23.12514 73.67825 34758 ft 536 kts 84°
2026-05-06 11:43 23.12918 73.75911 34751 ft 536 kts 84°
2026-05-06 11:44 23.13514 73.88038 34768 ft 536 kts 84°
2026-05-06 11:44 23.13907 73.96119 34775 ft 536 kts 84°
2026-05-06 11:45 23.14297 74.04205 34776 ft 536 kts 84°
2026-05-06 11:45 23.14681 74.12248 34784 ft 537 kts 84°
2026-05-06 11:46 23.15062 74.20350 34780 ft 537 kts 84°
2026-05-06 11:46 23.15440 74.28457 34792 ft 537 kts 84°
2026-05-06 11:47 23.15799 74.36568 34811 ft 538 kts 85°
2026-05-06 11:47 23.15987 74.44702 34794 ft 539 kts 87°
2026-05-06 11:48 23.16111 74.52843 34811 ft 539 kts 87°
2026-05-06 11:48 23.16252 74.60994 34808 ft 540 kts 86°
2026-05-06 11:49 23.16410 74.69151 34810 ft 539 kts 86°
2026-05-06 11:49 23.16569 74.77300 34816 ft 539 kts 86°
2026-05-06 11:50 23.16722 74.85452 34821 ft 539 kts 86°
2026-05-06 11:50 23.16868 74.93597 34827 ft 539 kts 86°
2026-05-06 11:51 23.17011 75.01741 34818 ft 539 kts 87°
2026-05-06 11:51 23.17149 75.09889 34831 ft 539 kts 87°
2026-05-06 11:52 23.17283 75.18039 34831 ft 539 kts 87°
2026-05-06 11:52 23.17414 75.26182 34831 ft 539 kts 87°
2026-05-06 11:53 23.17518 75.32954 34831 ft 539 kts 87°
2026-05-06 11:53 23.17660 75.42415 34837 ft 539 kts 87°
2026-05-06 11:54 23.17759 75.49243 34837 ft 539 kts 87°
2026-05-06 11:54 23.17873 75.57399 34837 ft 540 kts 87°
2026-05-06 11:55 23.17983 75.65563 34837 ft 540 kts 87°
2026-05-06 11:55 23.18089 75.73730 34834 ft 541 kts 87°
2026-05-06 11:56 23.18190 75.81849 34843 ft 541 kts 88°
2026-05-06 11:56 23.18288 75.90025 34838 ft 542 kts 88°
2026-05-06 11:57 23.18382 75.98211 34831 ft 542 kts 88°
2026-05-06 11:57 23.18819 76.06372 34835 ft 540 kts 83°
2026-05-06 11:58 23.19491 76.14499 34842 ft 540 kts 83°
2026-05-06 11:58 23.20160 76.22636 34835 ft 540 kts 83°
2026-05-06 11:59 23.20794 76.30783 34833 ft 541 kts 83°
2026-05-06 11:59 23.21409 76.38926 34829 ft 540 kts 83°
2026-05-06 12:00 23.22021 76.47063 34832 ft 540 kts 83°
2026-05-06 12:00 23.22630 76.55197 34838 ft 540 kts 83°
2026-05-06 12:01 23.23238 76.63349 34832 ft 541 kts 83°
2026-05-06 12:01 23.23841 76.71498 34828 ft 541 kts 83°
2026-05-06 12:02 23.24439 76.79655 34824 ft 541 kts 84°
2026-05-06 12:02 23.25034 76.87810 34833 ft 541 kts 84°
2026-05-06 12:03 23.25623 76.95953 34822 ft 541 kts 84°
2026-05-06 12:03 23.26207 77.04070 34821 ft 541 kts 84°
2026-05-06 12:04 23.26789 77.12228 34808 ft 541 kts 84°
2026-05-06 12:04 23.27367 77.20391 34805 ft 541 kts 84°
2026-05-06 12:05 23.27942 77.28562 34806 ft 542 kts 84°
2026-05-06 12:05 23.28280 77.36744 34800 ft 542 kts 91°
2026-05-06 12:06 23.27937 77.44933 34807 ft 542 kts 92°
2026-05-06 12:06 23.27534 77.53123 34806 ft 542 kts 92°
2026-05-06 12:07 23.27168 77.61315 34811 ft 542 kts 92°
2026-05-06 12:07 23.26826 77.69513 34805 ft 543 kts 92°
2026-05-06 12:08 23.26485 77.77710 34791 ft 542 kts 92°
2026-05-06 12:08 23.26136 77.85900 34803 ft 541 kts 92°
2026-05-06 12:09 23.25782 77.94074 34805 ft 540 kts 92°
2026-05-06 12:09 23.25425 78.02226 34815 ft 540 kts 92°
2026-05-06 12:10 23.25065 78.10333 34808 ft 540 kts 92°
2026-05-06 12:10 23.24698 78.18492 34815 ft 540 kts 92°
2026-05-06 12:11 23.24328 78.26650 34813 ft 540 kts 92°
2026-05-06 12:11 23.23953 78.34804 34811 ft 540 kts 92°
2026-05-06 12:12 23.23575 78.42961 34812 ft 540 kts 92°
2026-05-06 12:12 23.23191 78.51125 34810 ft 541 kts 92°
2026-05-06 12:13 23.22804 78.59291 34814 ft 541 kts 92°
2026-05-06 12:13 23.22412 78.67458 34815 ft 541 kts 92°
2026-05-06 12:14 23.22025 78.75626 34814 ft 541 kts 92°
2026-05-06 12:14 23.21863 78.83808 34811 ft 541 kts 90°
2026-05-06 12:15 23.21804 78.91989 34804 ft 541 kts 90°
2026-05-06 12:15 23.21709 79.00166 34801 ft 541 kts 90°
2026-05-06 12:16 23.21577 79.08352 34818 ft 541 kts 91°
2026-05-06 12:16 23.21436 79.16482 34805 ft 541 kts 91°
2026-05-06 12:17 23.21293 79.24665 34807 ft 541 kts 91°
2026-05-06 12:17 23.21148 79.32843 34808 ft 541 kts 91°
2026-05-06 12:18 23.21000 79.41017 34801 ft 541 kts 91°
2026-05-06 12:18 23.20846 79.49200 34815 ft 542 kts 91°
2026-05-06 12:19 23.20688 79.57385 34804 ft 542 kts 91°
2026-05-06 12:19 23.20390 79.65566 34807 ft 541 kts 93°
2026-05-06 12:20 23.20009 79.73739 34810 ft 541 kts 93°
2026-05-06 12:20 23.19645 79.81910 34815 ft 541 kts 93°
2026-05-06 12:21 23.19296 79.90089 34807 ft 542 kts 93°
2026-05-06 12:21 23.18943 79.98279 34803 ft 542 kts 93°
2026-05-06 12:22 23.18584 80.06467 34804 ft 542 kts 93°
2026-05-06 12:22 23.18182 80.14656 34805 ft 543 kts 94°
2026-05-06 12:23 23.17751 80.22844 34812 ft 543 kts 94°
2026-05-06 12:23 23.17319 80.31045 34813 ft 543 kts 94°
2026-05-06 12:24 23.16894 80.39182 34814 ft 544 kts 94°
2026-05-06 12:24 23.16461 80.47385 34811 ft 543 kts 94°
2026-05-06 12:25 23.16025 80.55578 34810 ft 543 kts 94°
2026-05-06 12:25 23.15584 80.63770 34809 ft 543 kts 94°
2026-05-06 12:26 23.15138 80.71963 34783 ft 543 kts 94°
2026-05-06 12:26 23.14690 80.80140 34793 ft 542 kts 94°
2026-05-06 12:27 23.14244 80.88308 34805 ft 542 kts 94°
2026-05-06 12:27 23.13796 80.96473 34791 ft 541 kts 94°
2026-05-06 12:28 23.13342 81.04639 34801 ft 540 kts 94°
2026-05-06 12:28 23.12885 81.12795 34781 ft 541 kts 94°
2026-05-06 12:29 23.12427 81.20893 34768 ft 540 kts 94°
2026-05-06 12:29 23.11961 81.29037 34779 ft 541 kts 94°
2026-05-06 12:30 23.11491 81.37187 34772 ft 540 kts 95°
2026-05-06 12:30 23.11017 81.45332 34782 ft 540 kts 95°
2026-05-06 12:31 23.10539 81.53488 34776 ft 540 kts 95°
2026-05-06 12:31 23.10057 81.61630 34774 ft 540 kts 95°
2026-05-06 12:32 23.09571 81.69774 34775 ft 540 kts 95°
2026-05-06 12:32 23.09081 81.77906 34775 ft 540 kts 95°
2026-05-06 12:33 23.08587 81.86047 34775 ft 540 kts 95°
2026-05-06 12:33 23.08088 81.94192 34776 ft 540 kts 95°
2026-05-06 12:34 23.07584 82.02339 34772 ft 540 kts 95°
2026-05-06 12:34 23.07081 82.10428 34773 ft 541 kts 95°
2026-05-06 12:35 23.06579 82.18574 34771 ft 541 kts 94°
2026-05-06 12:35 23.06206 82.26728 34774 ft 541 kts 93°
2026-05-06 12:36 23.05885 82.34884 34775 ft 541 kts 93°
2026-05-06 12:36 23.05546 82.43039 34756 ft 540 kts 94°
2026-05-06 12:37 23.05185 82.51190 34761 ft 540 kts 94°
2026-05-06 12:37 23.04815 82.59332 34759 ft 540 kts 94°
2026-05-06 12:38 23.04442 82.67470 34763 ft 540 kts 94°
2026-05-06 12:38 23.04066 82.75610 34760 ft 540 kts 94°
2026-05-06 12:39 23.03687 82.83741 34763 ft 539 kts 94°
2026-05-06 12:39 23.03303 82.91874 34765 ft 539 kts 94°
2026-05-06 12:40 23.02916 82.99997 34766 ft 539 kts 94°
2026-05-06 12:40 23.02524 83.08126 34773 ft 539 kts 94°
2026-05-06 12:41 23.02128 83.16249 34783 ft 539 kts 94°
2026-05-06 12:41 23.01796 83.23001 34779 ft 539 kts 94°
2026-05-06 12:42 23.01392 83.31134 34797 ft 540 kts 94°
2026-05-06 12:42 23.00984 83.39268 34786 ft 540 kts 94°
2026-05-06 12:43 23.00571 83.47411 34811 ft 540 kts 94°
2026-05-06 12:43 23.00154 83.55553 34802 ft 540 kts 94°
2026-05-06 12:44 22.99734 83.63683 34819 ft 540 kts 94°
2026-05-06 12:44 22.99310 83.71814 34808 ft 539 kts 94°
2026-05-06 12:45 22.98882 83.79920 34837 ft 538 kts 94°
2026-05-06 12:46 22.98234 83.92059 34832 ft 536 kts 94°
2026-05-06 12:46 22.97798 84.00131 34830 ft 535 kts 94°
2026-05-06 12:47 22.97362 84.08119 34849 ft 533 kts 95°
2026-05-06 12:47 22.96904 84.16147 34855 ft 533 kts 95°
2026-05-06 12:48 22.96332 84.24159 34871 ft 533 kts 96°
2026-05-06 12:48 22.95729 84.32171 34868 ft 533 kts 96°
2026-05-06 12:49 22.95138 84.40187 34876 ft 533 kts 96°
2026-05-06 12:49 22.94552 84.48222 34878 ft 534 kts 96°
2026-05-06 12:50 22.93965 84.56252 34889 ft 534 kts 96°
2026-05-06 12:50 22.93373 84.64281 34887 ft 534 kts 96°
2026-05-06 12:51 22.92775 84.72307 34885 ft 534 kts 96°
2026-05-06 12:51 22.92173 84.80345 34883 ft 534 kts 96°
2026-05-06 12:52 22.91567 84.88381 34879 ft 535 kts 96°
2026-05-06 12:52 22.90956 84.96420 34881 ft 535 kts 96°
2026-05-06 12:53 22.90342 85.04456 34880 ft 535 kts 96°
2026-05-06 12:53 22.89729 85.12426 34869 ft 533 kts 96°
2026-05-06 12:54 22.89109 85.20440 34877 ft 532 kts 96°
2026-05-06 12:54 22.88487 85.28436 34872 ft 532 kts 96°
2026-05-06 12:55 22.87862 85.36431 34870 ft 532 kts 96°
2026-05-06 12:55 22.87233 85.44417 34869 ft 532 kts 97°
2026-05-06 12:56 22.86600 85.52404 34866 ft 532 kts 97°
2026-05-06 12:56 22.85962 85.60404 34858 ft 533 kts 97°
2026-05-06 12:57 22.85319 85.68418 34850 ft 533 kts 97°
2026-05-06 12:57 22.84672 85.76425 34842 ft 534 kts 97°
2026-05-06 12:58 22.84021 85.84431 34825 ft 533 kts 97°
2026-05-06 12:58 22.83367 85.92435 34793 ft 533 kts 97°
2026-05-06 12:59 22.82708 86.00441 34766 ft 533 kts 97°
2026-05-06 12:59 22.82047 86.08440 34747 ft 532 kts 97°
2026-05-06 13:00 22.81254 86.16394 34737 ft 528 kts 105°
2026-05-06 13:00 22.80067 86.20059 34739 ft 518 kts 123°
2026-05-06 13:00 22.78162 86.23326 34768 ft 511 kts 128°
2026-05-06 13:01 22.74231 86.29851 34737 ft 518 kts 127°
2026-05-06 13:01 22.72303 86.33179 34243 ft 523 kts 126°
2026-05-06 13:01 22.70407 86.36522 33727 ft 519 kts 126°
2026-05-06 13:01 22.68533 86.39843 33177 ft 515 kts 126°
2026-05-06 13:02 22.66664 86.43138 32648 ft 510 kts 126°
2026-05-06 13:02 22.64863 86.46413 32121 ft 505 kts 121°
2026-05-06 13:02 22.63671 86.49999 31623 ft 510 kts 104°
2026-05-06 13:02 22.63433 86.53809 31152 ft 506 kts 89°
2026-05-06 13:03 22.63615 86.57603 30707 ft 502 kts 89°
2026-05-06 13:03 22.63774 86.61362 30214 ft 499 kts 90°
2026-05-06 13:03 22.63902 86.65106 29700 ft 496 kts 91°
2026-05-06 13:03 22.64003 86.68822 29165 ft 492 kts 91°
2026-05-06 13:04 22.64086 86.72509 28653 ft 488 kts 91°
2026-05-06 13:04 22.64159 86.76169 28171 ft 484 kts 91°
2026-05-06 13:04 22.64228 86.79795 27690 ft 480 kts 91°
2026-05-06 13:04 22.64296 86.83394 27215 ft 476 kts 91°
2026-05-06 13:05 22.64363 86.86964 26747 ft 473 kts 91°
2026-05-06 13:05 22.64431 86.90510 26280 ft 470 kts 91°
2026-05-06 13:05 22.64498 86.94035 25821 ft 467 kts 91°
2026-05-06 13:05 22.64564 86.97485 25346 ft 464 kts 92°
2026-05-06 13:06 22.64630 87.00965 24881 ft 461 kts 92°
2026-05-06 13:06 22.64694 87.04431 24411 ft 459 kts 92°
2026-05-06 13:06 22.64758 87.07872 23947 ft 456 kts 92°
2026-05-06 13:06 22.64820 87.11302 23476 ft 455 kts 92°
2026-05-06 13:07 22.64881 87.14713 22942 ft 452 kts 92°
2026-05-06 13:07 22.64941 87.18105 22450 ft 449 kts 92°
2026-05-06 13:07 22.65000 87.21471 21979 ft 445 kts 91°
2026-05-06 13:07 22.65058 87.24809 21520 ft 441 kts 91°
2026-05-06 13:08 22.65115 87.28112 21062 ft 438 kts 91°
2026-05-06 13:08 22.65170 87.31393 20604 ft 434 kts 91°
2026-05-06 13:08 22.65224 87.34650 20156 ft 431 kts 91°
2026-05-06 13:08 22.65278 87.37887 19711 ft 429 kts 91°
2026-05-06 13:09 22.65330 87.41104 19258 ft 426 kts 90°
2026-05-06 13:09 22.65381 87.44302 18796 ft 424 kts 90°
2026-05-06 13:09 22.65432 87.47490 18335 ft 423 kts 90°
2026-05-06 13:09 22.65482 87.50666 17844 ft 421 kts 90°
2026-05-06 13:10 22.65531 87.53828 17341 ft 418 kts 90°
2026-05-06 13:10 22.65579 87.56954 16875 ft 415 kts 90°
2026-05-06 13:10 22.65627 87.60070 16412 ft 412 kts 90°
2026-05-06 13:10 22.65673 87.63163 15956 ft 409 kts 90°
2026-05-06 13:11 22.65718 87.66232 15504 ft 406 kts 90°
2026-05-06 13:11 22.65763 87.69281 15051 ft 404 kts 90°
2026-05-06 13:11 22.65806 87.72312 14593 ft 401 kts 90°
2026-05-06 13:11 22.65849 87.75323 14139 ft 399 kts 90°
2026-05-06 13:12 22.65891 87.78323 13678 ft 398 kts 89°
2026-05-06 13:12 22.65933 87.81314 13176 ft 396 kts 89°
2026-05-06 13:12 22.65973 87.84241 12715 ft 393 kts 89°
2026-05-06 13:12 22.66013 87.87187 12235 ft 390 kts 89°
2026-05-06 13:13 22.66052 87.90115 11786 ft 387 kts 89°
2026-05-06 13:13 22.66090 87.93018 11334 ft 385 kts 90°
2026-05-06 13:13 22.66127 87.95908 10877 ft 382 kts 90°
2026-05-06 13:13 22.66157 87.98772 10433 ft 376 kts 92°
2026-05-06 13:14 22.65719 88.01491 10207 ft 362 kts 112°
2026-05-06 13:14 22.64543 88.03819 10058 ft 345 kts 125°
2026-05-06 13:14 22.63238 88.05961 9899 ft 336 kts 125°
2026-05-06 13:14 22.61982 88.08050 9812 ft 325 kts 125°
2026-05-06 13:15 22.60778 88.10073 9745 ft 314 kts 125°
2026-05-06 13:15 22.59621 88.12026 9638 ft 304 kts 125°
2026-05-06 13:15 22.58500 88.13923 9485 ft 295 kts 125°
2026-05-06 13:15 22.57406 88.15776 9230 ft 291 kts 125°
2026-05-06 13:16 22.56316 88.17622 8919 ft 290 kts 125°
2026-05-06 13:16 22.55237 88.19464 8602 ft 289 kts 123°
2026-05-06 13:16 22.54219 88.21339 8292 ft 288 kts 122°
2026-05-06 13:16 22.53225 88.23208 8005 ft 286 kts 122°
2026-05-06 13:17 22.52230 88.25069 7721 ft 285 kts 122°
2026-05-06 13:17 22.51237 88.26916 7418 ft 283 kts 122°
2026-05-06 13:17 22.50030 88.28537 7002 ft 277 kts 146°
2026-05-06 13:17 22.48285 88.29331 6663 ft 272 kts 173°
2026-05-06 13:18 22.46451 88.29328 6383 ft 266 kts 191°
2026-05-06 13:18 22.44635 88.28977 6076 ft 265 kts 193°
2026-05-06 13:18 22.42822 88.28623 5755 ft 265 kts 192°
2026-05-06 13:18 22.41023 88.28279 5565 ft 260 kts 192°
2026-05-06 13:19 22.39262 88.28192 5332 ft 253 kts 169°
2026-05-06 13:19 22.37703 88.29012 5158 ft 250 kts 139°
2026-05-06 13:19 22.36749 88.30542 4976 ft 246 kts 109°
2026-05-06 13:19 22.36437 88.32355 4711 ft 245 kts 94°
2026-05-06 13:20 22.36405 88.34182 4468 ft 243 kts 91°
2026-05-06 13:20 22.36390 88.35983 4267 ft 238 kts 92°
2026-05-06 13:20 22.36428 88.37766 3911 ft 237 kts 82°
2026-05-06 13:20 22.37078 88.39429 3382 ft 246 kts 53°
2026-05-06 13:21 22.38178 88.40799 3153 ft 236 kts 42°
2026-05-06 13:21 22.39569 88.41612 2994 ft 224 kts 12°
2026-05-06 13:21 22.41081 88.41897 2918 ft 219 kts
2026-05-06 13:21 22.42606 88.42109 2827 ft 223 kts
2026-05-06 13:22 22.44155 88.42297 2737 ft 225 kts
2026-05-06 13:22 22.45709 88.42476 2645 ft 224 kts
2026-05-06 13:22 22.47256 88.42655 2534 ft 223 kts
2026-05-06 13:22 22.48764 88.42830 2452 ft 212 kts
2026-05-06 13:23 22.50195 88.42997 2382 ft 204 kts
2026-05-06 13:23 22.51596 88.43161 2269 ft 197 kts
2026-05-06 13:23 22.52907 88.43313 2148 ft 184 kts
2026-05-06 13:23 22.54132 88.43457 1934 ft 170 kts
2026-05-06 13:24 22.55258 88.43588 1715 ft 159 kts
2026-05-06 13:24 22.56379 88.43719 1534 ft 164 kts
2026-05-06 13:24 22.57504 88.43850 1325 ft 161 kts
2026-05-06 13:24 22.58599 88.43976 1109 ft 156 kts
2026-05-06 13:25 22.59664 88.44099 899 ft 152 kts
2026-05-06 13:25 22.60721 88.44224 720 ft 153 kts
2026-05-06 13:25 22.61754 88.44341 551 ft 147 kts
2026-05-06 13:25 22.62763 88.44464 363 ft 145 kts
2026-05-06 13:26 22.63422 88.44542 223 ft 141 kts
2026-05-06 13:26 22.64422 88.44659 45 ft 147 kts
2026-05-06 13:26 22.65362 88.44768 33 ft 121 kts
2026-05-06 13:26 22.66081 88.44854 33 ft 86 kts
2026-05-06 13:27 22.66792 88.44934 31 ft 53 kts
2026-05-06 13:27 22.67079 88.44969 32 ft 31 kts
2026-05-06 13:27 22.67239 88.44988 34 ft 14 kts
2026-05-06 13:27 22.67321 88.44959 34 ft 14 kts 294°
2026-05-06 13:28 22.67333 88.44883 31 ft 17 kts 276°
2026-05-06 13:28 22.67309 88.44755 29 ft 18 kts 243°
2026-05-06 13:28 22.67248 88.44644 29 ft 16 kts 225°
2026-05-06 13:28 22.67144 88.44615 28 ft 16 kts 186°
2026-05-06 13:29 22.67031 88.44603 28 ft 17 kts 186°
2026-05-06 13:29 22.66910 88.44589 28 ft 21 kts 186°
2026-05-06 13:29 22.66741 88.44568 28 ft 26 kts 189°
2026-05-06 13:29 22.66563 88.44525 28 ft 26 kts 192°
2026-05-06 13:30 22.66386 88.44502 28 ft 26 kts 186°
2026-05-06 13:30 22.66207 88.44482 28 ft 26 kts 186°
2026-05-06 13:30 22.66031 88.44461 29 ft 23 kts 187°
2026-05-06 13:30 22.65884 88.44464 29 ft 21 kts 175°
2026-05-06 13:31 22.65739 88.44451 29 ft 21 kts 185°
2026-05-06 13:31 22.65594 88.44435 29 ft 21 kts 187°
2026-05-06 13:31 22.65449 88.44418 29 ft 21 kts 186°
2026-05-06 13:31 22.65305 88.44400 29 ft 21 kts 186°
2026-05-06 13:32 22.65161 88.44398 29 ft 21 kts 164°
2026-05-06 13:32 22.65017 88.44405 28 ft 21 kts 186°
2026-05-06 13:32 22.64872 88.44389 29 ft 21 kts 186°
2026-05-06 13:32 22.64728 88.44373 29 ft 21 kts 185°
2026-05-06 13:33 22.64583 88.44357 28 ft 21 kts 187°
2026-05-06 13:33 22.64439 88.44339 29 ft 21 kts 187°
2026-05-06 13:33 22.64295 88.44321 29 ft 21 kts 186°
2026-05-06 13:33 22.64150 88.44305 28 ft 21 kts 186°
2026-05-06 13:34 22.64038 88.44290 28 ft 11 kts 188°
2026-05-06 13:34 22.64011 88.44219 28 ft 12 kts 273°
2026-05-06 13:34 22.64017 88.44132 28 ft 12 kts 269°
2026-05-06 13:34 22.63994 88.44049 28 ft 12 kts 248°
2026-05-06 13:35 22.63963 88.43969 28 ft 12 kts 245°
2026-05-06 13:35 22.63932 88.43894 28 ft 9 kts 250°
2026-05-06 13:35 22.63966 88.43851 28 ft 5 kts 339°
2026-05-06 13:35 22.63986 88.43842 28 ft 3 kts 337°
2026-05-06 13:36 22.64002 88.43835 28 ft 2 kts 337°
2026-05-06 13:36 22.64004 88.43833 28 ft 0 kts 337°